Location: Beugnon
(47.6222°N, 3.7850°E)
Time: 08:54:09
(UTC+00:00)

ARGOS Delta rocket - Pass Details

Date: 09 April 2020
Orbit: 634 x 839 km, 96.4° (Epoch: 02 June)

Event Time Altitude Azimuth Distance (km) Brightness Sun altitude
Rises 18:44:37 0° 163° (SSE) 3,298 7.0 -3.8°
Reaches altitude 10° 18:46:55 10° 162° (SSE) 2,394 6.2 -4.1°
Maximum altitude 18:52:16 80° 77° (ENE) 850 4.2 -5.0°
Drops below altitude 10° 18:57:48 10° 351° (N) 2,466 7.0 -5.9°
Sets 19:00:11 0° 350° (N) 3,405 7.8 -6.3°
